This is the latest recevied weather packets stored in our database for station/object DH4SBM. If no packets are shown the sender has not sent any weather packets the latest 10 day(s).
| Time | Temp. | Humidity | Pressure | Rain* | Wind** | Luminosity | Snow |
|---|---|---|---|---|---|---|---|
| 1777475303 | 18.33° C | 30% | 1023.2 hPa | 0 mm | - | 459 W/m² | - |
| 1777474703 | 18.89° C | 31% | 1023.1 hPa | 0 mm | - | 485 W/m² | - |
| 1777474103 | 18.89° C | 31% | 1023.2 hPa | 0 mm | - | 510 W/m² | - |
| 1777473503 | 18.89° C | 31% | 1023.2 hPa | 0 mm | - | 533 W/m² | - |
| 1777472903 | 18.89° C | 31% | 1023.1 hPa | 0 mm | - | 557 W/m² | - |
| 1777472303 | 18.89° C | 31% | 1023.2 hPa | 0 mm | - | 582 W/m² | - |
| 1777471703 | 18.89° C | 32% | 1023.2 hPa | 0 mm | - | 598 W/m² | - |
| 1777471103 | 18.89° C | 33% | 1023.1 hPa | 0 mm | - | 622 W/m² | - |
| 1777470503 | 18.89° C | 32% | 1023.2 hPa | 0 mm | - | 643 W/m² | - |
| 1777469903 | 19.44° C | 34% | 1023.2 hPa | 0 mm | - | 659 W/m² | - |
| 1777469303 | 18.89° C | 33% | 1023.2 hPa | 0 mm | - | 682 W/m² | - |
| 1777468703 | 18.89° C | 34% | 1023.2 hPa | 0 mm | - | 698 W/m² | - |
| 1777468103 | 18.89° C | 35% | 1023.1 hPa | 0 mm | - | 712 W/m² | - |
| 1777467503 | 18.89° C | 35% | 1023.2 hPa | 0 mm | - | 731 W/m² | - |
| 1777467337 | 18.89° C | 35% | 1023.2 hPa | 0 mm | - | 731 W/m² | - |
| 1777466737 | 18.89° C | 38% | 1023.3 hPa | 0 mm | - | 745 W/m² | - |
| 1777466147 | 18.33° C | 38% | 1023.2 hPa | 0 mm | - | 754 W/m² | - |
| 1777465547 | 18.89° C | 38% | 1023.1 hPa | 0 mm | - | 765 W/m² | - |
| 1777464947 | 18.33° C | 39% | 1023.3 hPa | 0 mm | - | 775 W/m² | - |
| 1777464347 | 18.33° C | 38% | 1023.2 hPa | 0 mm | - | 788 W/m² | - |
| 1777463747 | 18.33° C | 40% | 1023.2 hPa | 0 mm | - | 791 W/m² | - |
| 1777463147 | 18.33° C | 39% | 1023.2 hPa | 0 mm | - | 798 W/m² | - |
| 1777462547 | 18.33° C | 40% | 1023.2 hPa | 0 mm | - | 805 W/m² | - |
| 1777461947 | 18.33° C | 39% | 1023.3 hPa | 0 mm | - | 809 W/m² | - |
| 1777461347 | 18.33° C | 40% | 1023.2 hPa | 0 mm | - | 809 W/m² | - |
* Rain latest hour (hover to see other rain measurements)
** Current wind speed in m/s (hover to see current wind gust speed)